Temp
-9 -9 -9 -10 -10 -11 -11 -11 -11 -11 -11 -11 -11 -11 -10 -10 -10 -10 -10 -10 -10 -9 -9 -8 -8 -9 -9 -9 -9 -9 -9 -9 -9 -9 -9 -9 -9 -10 -10 -10 -10 -10 -10
-10 -10 -10 -11 -11 -11 -12 -12 -12 -12 -11 -12 -12 -12 -11 -10 -10 -11 -11 -11 -11 -9 -9 -9 -9 -9 -9 -9 -9 -9 -9 -9 -9 -10 -9 -10 -10 -10 -10 -10 -10 -10 -10
-11 -11 -11 -11 -12 -12 -12 -13 -13 -13 -12 -12 -12 -12 -11 -11 -11 -11 -11 -12 -10 -10 -10 -9 -10 -9 -9 -9 -10 -10 -10 -10 -10 -10 -10 -10 -10 -10 -10 -10 -11 -11 -11
-12 -11 -12 -12 -13 -13 -13 -14 -13 -14 -13 -12 -13 -13 -12 -11 -11 -12 -11 -12 -11 -11 -10 -10 -10 -10 -10 -9 -10 -10 -10 -10 -10 -11 -11 -10 -10 -10 -11 -11 -11 -11 -11
-12 -12 -13 -13 -14 -14 -14 -14 -14 -14 -14 -13 -13 -13 -12 -12 -11 -11 -11 -11 -11 -12 -12 -11 -10 -10 -10 -10 -10 -10 -10 -10 -11 -10 -10 -10 -11 -11 -11 -11 -11 -11 -11
-12 -12 -13 -13 -14 -14 -14 -15 -14 -14 -13 -13 -13 -13 -12 -12 -11 -11 -11 -11 -12 -12 -11 -11 -10 -10 -10 -11 -11 -11 -11 -11 -11 -11 -11 -11 -11 -12 -12 -12 -12 -11 -12
-12 -12 -12 -13 -14 -13 -13 -12 -12 -11 -12 -11 -13 -13 -13 -12 -11 -11 -11 -11 -12 -12 -11 -11 -11 -10 -11 -11 -11 -11 -11 -11 -11 -11 -11 -12 -12 -12 -12 -12 -12 -12 -12
-12 -12 -12 -13 -14 -14 -13 -12 -12 -12 -11 -11 -13 -13 -13 -12 -12 -11 -12 -11 -11 -12 -12 -12 -12 -11 -11 -11 -11 -11 -11 -11 -11 -11 -12 -12 -12 -12 -12 -13 -12 -12 -12
-12 -12 -12 -12 -13 -13 -12 -12 -12 -12 -11 -11 -12 -13 -13 -12 -12 -11 -12 -12 -11 -12 -12 -12 -12 -11 -11 -11 -11 -11 -12 -11 -11 -11 -12 -12 -12 -13 -12 -13 -13 -13 -13
-11 -12 -12 -12 -14 -12 -13 -13 -13 -12 -11 -12 -12 -12 -12 -12 -12 -12 -12 -11 -11 -12 -11 -12 -12 -12 -11 -11 -11 -12 -12 -11 -11 -11 -12 -12 -12 -13 -13 -14 -13 -13 -13
-12 -12 -12 -12 -13 -13 -13 -12 -13 -12 -12 -11 -12 -12 -12 -11 -12 -12 -12 -12 -11 -12 -12 -12 -12 -12 -12 -11 -12 -12 -12 -12 -12 -12 -12 -12 -12 -12 -13 -14 -14 -13 -13
-12 -12 -12 -12 -12 -13 -13 -12 -13 -12 -13 -12 -12 -12 -12 -12 -12 -12 -12 -12 -12 -12 -12 -12 -12 -13 -12 -12 -12 -12 -12 -12 -12 -12 -12 -12 -12 -13 -13 -14 -14 -14 -14
-12 -12 -12 -12 -12 -12 -13 -13 -12 -12 -13 -12 -12 -12 -12 -12 -12 -12 -12 -12 -12 -12 -12 -12 -12 -13 -12 -12 -12 -12 -12 -12 -12 -12 -12 -12 -12 -12 -13 -14 -14 -14 -14
-11 -12 -12 -12 -12 -12 -12 -13 -13 -13 -12 -12 -12 -12 -12 -12 -12 -12 -12 -12 -12 -12 -12 -12 -12 -13 -13 -12 -12 -12 -12 -12 -12 -12 -12 -12 -12 -12 -13 -14 -14 -14 -15
-12 -12 -12 -12 -12 -12 -12 -12 -13 -13 -13 -13 -12 -12 -12 -12 -12 -12 -12 -12 -12 -12 -12 -12 -12 -13 -13 -12 -12 -12 -12 -12 -12 -12 -12 -12 -12 -13 -14 -15 -15 -15 -15
-12 -11 -11 -12 -12 -12 -12 -12 -13 -13 -13 -13 -13 -13 -12 -12 -12 -12 -12 -12 -12 -11 -12 -12 -12 -12 -12 -12 -12 -12 -12 -12 -12 -12 -13 -13 -13 -14 -15 -16 -16 -16 -16
-12 -12 -12 -12 -12 -12 -12 -13 -13 -13 -13 -13 -12 -12 -12 -11 -12 -11 -12 -11 -12 -12 -12 -12 -12 -11 -12 -12 -12 -12 -12 -13 -13 -13 -13 -13 -14 -14 -15 -16 -16 -16 -16
-12 -12 -13 -13 -12 -12 -12 -13 -12 -12 -12 -13 -13 -12 -12 -11 -12 -12 -12 -12 -12 -12 -12 -12 -12 -11 -12 -13 -13 -13 -13 -13 -13 -12 -12 -13 -14 -15 -16 -16 -16 -16 -17
-12 -13 -13 -13 -13 -12 -12 -12 -12 -12 -12 -12 -13 -11 -11 -12 -12 -12 -12 -12 -12 -12 -12 -12 -12 -12 -12 -12 -13 -13 -13 -13 -13 -13 -13 -14 -15 -16 -16 -17 -17 -17 -16
-12 -13 -13 -13 -13 -12 -12 -12 -11 -11 -12 -13 -13 -13 -13 -12 -12 -12 -12 -12 -12 -12 -12 -12 -12 -12 -12 -13 -13 -13 -13 -13 -14 -13 -14 -15 -16 -17 -17 -17 -17 -17 -16
-13 -13 -13 -13 -13 -12 -11 -11 -11 -12 -12 -13 -14 -13 -13 -13 -13 -12 -12 -12 -12 -12 -13 -13 -13 -13 -14 -14 -13 -14 -14 -14 -14 -14 -15 -16 -17 -16 -17 -17 -17 -16 -16
-13 -14 -14 -13 -13 -13 -12 -12 -12 -12 -13 -13 -13 -13 -13 -13 -13 -13 -13 -13 -13 -13 -14 -14 -14 -14 -14 -14 -14 -14 -14 -14 -14 -14 -15 -16 -16 -16 -16 -16 -16 -16 -16
-13 -14 -13 -13 -13 -13 -13 -13 -13 -13 -13 -13 -13 -13 -13 -13 -13 -13 -13 -14 -13 -14 -14 -14 -14 -14 -14 -14 -14 -14 -15 -15 -15 -15 -16 -16 -16 -16 -16 -16 -16 -16 -15
-13 -13 -13 -13 -13 -13 -13 -13 -13 -14 -13 -13 -13 -13 -13 -14 -14 -14 -14 -14 -14 -14 -14 -14 -14 -14 -14 -14 -14 -15 -15 -16 -16 -16 -16 -16 -16 -16 -16 -15 -16 -16 -16
-13 -13 -13 -13 -13 -13 -13 -13 -13 -13 -13 -13 -13 -14 -14 -14 -14 -14 -14 -14 -14 -14 -14 -14 -14 -14 -14 -14 -15 -15 -16 -16 -16 -16 -16 -16 -16 -16 -16 -16 -16 -15 -15
-13 -13 -13 -13 -13 -13 -13 -13 -13 -13 -12 -13 -13 -13 -14 -13 -14 -14 -14 -14 -14 -14 -15 -14 -14 -15 -15 -15 -16 -16 -16 -16 -16 -16 -16 -16 -16 -16 -16 -16 -16 -15 -15
Height
5798 5800 5799 5798 5797 5797 5798 5799 5801 5805 5806 5808 5810 5812 5815 5817 5819 5821 5824 5826 5829 5832 5833 5834 5835 5835 5837 5837 5837 5840 5841 5841 5840 5841 5842 5842 5843 5844 5844 5845 5844 5843 5843
5793 5794 5793 5793 5793 5793 5793 5793 5795 5800 5802 5803 5804 5807 5810 5813 5815 5817 5819 5822 5825 5828 5830 5831 5833 5834 5835 5836 5836 5837 5838 5839 5839 5839 5841 5842 5842 5842 5843 5843 5842 5842 5841
5788 5789 5787 5786 5787 5789 5788 5788 5791 5794 5796 5798 5801 5803 5805 5807 5810 5812 5815 5819 5821 5824 5827 5828 5830 5831 5833 5834 5835 5835 5835 5836 5837 5838 5839 5840 5840 5841 5841 5841 5841 5841 5841
5783 5783 5782 5781 5781 5782 5783 5783 5784 5786 5790 5791 5793 5795 5798 5801 5805 5809 5811 5814 5816 5820 5823 5825 5827 5828 5829 5831 5833 5832 5834 5834 5835 5838 5837 5838 5839 5838 5839 5841 5840 5840 5840
5778 5778 5777 5775 5774 5775 5776 5775 5776 5776 5781 5784 5789 5791 5794 5798 5801 5805 5809 5811 5812 5815 5818 5822 5823 5826 5827 5829 5831 5831 5832 5833 5834 5835 5836 5836 5838 5837 5839 5839 5839 5839 5840
5773 5773 5773 5770 5769 5768 5768 5767 5769 5770 5770 5773 5781 5785 5789 5792 5796 5800 5804 5806 5810 5812 5817 5819 5822 5824 5825 5826 5828 5830 5830 5830 5831 5833 5833 5834 5836 5835 5837 5837 5836 5837 5838
5770 5767 5766 5764 5762 5760 5758 5759 5759 5762 5752 5757 5776 5782 5786 5788 5791 5795 5799 5802 5805 5808 5813 5816 5819 5821 5822 5824 5825 5827 5827 5827 5828 5830 5831 5831 5832 5833 5833 5835 5834 5836 5836
5765 5763 5760 5756 5752 5753 5752 5751 5749 5761 5758 5758 5770 5775 5781 5783 5788 5791 5793 5798 5802 5806 5808 5812 5816 5818 5819 5821 5823 5823 5824 5825 5826 5826 5827 5828 5830 5830 5830 5832 5832 5832 5833
5759 5758 5755 5751 5749 5745 5747 5743 5748 5752 5755 5753 5763 5770 5772 5777 5781 5788 5789 5794 5796 5801 5803 5808 5812 5815 5817 5818 5820 5820 5821 5821 5822 5824 5825 5824 5825 5826 5828 5828 5831 5830 5830
5755 5753 5751 5747 5745 5744 5746 5745 5747 5749 5750 5756 5761 5766 5771 5771 5776 5782 5786 5789 5792 5796 5799 5803 5809 5812 5814 5815 5815 5817 5817 5818 5819 5820 5820 5820 5820 5822 5824 5825 5827 5828 5828
5752 5750 5748 5745 5744 5741 5742 5741 5742 5747 5751 5753 5758 5763 5766 5768 5773 5775 5780 5784 5788 5791 5796 5799 5805 5808 5809 5811 5812 5813 5815 5815 5815 5816 5816 5816 5817 5819 5822 5823 5824 5824 5826
5749 5747 5746 5745 5742 5741 5739 5741 5742 5745 5748 5752 5754 5759 5762 5765 5770 5773 5776 5780 5784 5787 5790 5795 5799 5804 5805 5807 5808 5809 5811 5811 5811 5811 5812 5814 5814 5815 5817 5818 5820 5822 5823
5745 5744 5743 5743 5742 5741 5741 5739 5740 5743 5745 5747 5750 5753 5757 5760 5764 5768 5772 5776 5780 5784 5787 5792 5794 5799 5801 5803 5804 5805 5806 5806 5807 5808 5809 5810 5810 5811 5813 5815 5817 5818 5819
5741 5740 5739 5738 5738 5738 5740 5739 5739 5740 5741 5744 5746 5748 5750 5750 5759 5762 5768 5771 5774 5778 5783 5787 5789 5793 5796 5798 5799 5800 5801 5802 5803 5804 5805 5806 5806 5807 5808 5810 5812 5815 5817
5738 5736 5735 5734 5735 5734 5733 5735 5736 5738 5738 5739 5740 5741 5744 5748 5753 5757 5763 5766 5769 5773 5777 5782 5784 5787 5791 5793 5795 5795 5797 5797 5798 5800 5801 5801 5802 5803 5805 5807 5808 5811 5812
5733 5731 5730 5730 5731 5732 5731 5731 5732 5732 5734 5732 5736 5737 5735 5742 5745 5751 5757 5759 5763 5766 5771 5775 5778 5782 5786 5788 5790 5792 5792 5793 5794 5796 5796 5797 5797 5798 5800 5801 5803 5805 5807
5729 5726 5724 5725 5726 5727 5727 5728 5728 5728 5728 5727 5729 5731 5729 5734 5738 5744 5750 5754 5758 5762 5766 5769 5772 5776 5781 5783 5785 5787 5787 5787 5789 5790 5792 5792 5792 5793 5794 5797 5799 5802 5803
5727 5724 5721 5720 5720 5722 5722 5722 5723 5723 5722 5723 5722 5724 5726 5731 5735 5742 5747 5749 5752 5755 5759 5763 5766 5769 5775 5777 5779 5780 5782 5783 5784 5784 5786 5786 5787 5788 5790 5793 5795 5798 5798
5725 5722 5720 5717 5715 5715 5715 5715 5713 5715 5717 5719 5720 5719 5721 5727 5733 5738 5742 5744 5747 5750 5753 5756 5760 5763 5767 5770 5772 5774 5777 5777 5778 5779 5780 5781 5782 5784 5787 5789 5791 5793 5794
5722 5720 5718 5715 5712 5710 5709 5709 5707 5709 5711 5712 5718 5718 5720 5725 5730 5732 5734 5737 5740 5742 5746 5750 5753 5758 5763 5763 5765 5768 5772 5773 5774 5775 5775 5776 5778 5780 5782 5784 5786 5787 5789
5721 5718 5715 5713 5710 5707 5705 5706 5705 5706 5710 5711 5715 5716 5718 5720 5723 5724 5727 5730 5734 5736 5740 5746 5751 5755 5756 5757 5760 5764 5767 5768 5769 5769 5770 5772 5774 5776 5778 5779 5781 5782 5784
5719 5716 5714 5711 5708 5704 5704 5706 5704 5704 5707 5709 5713 5714 5715 5717 5717 5721 5724 5728 5731 5734 5738 5744 5745 5747 5749 5753 5757 5760 5761 5763 5763 5764 5766 5767 5769 5772 5773 5774 5776 5778 5780
5717 5715 5713 5711 5708 5705 5705 5706 5705 5705 5707 5709 5711 5713 5714 5716 5717 5720 5723 5727 5730 5734 5737 5740 5741 5743 5745 5750 5753 5756 5757 5758 5757 5758 5761 5763 5765 5768 5769 5770 5771 5772 5772
5716 5715 5713 5711 5709 5706 5705 5705 5705 5705 5706 5706 5709 5711 5713 5714 5716 5719 5723 5726 5729 5732 5734 5736 5738 5740 5743 5746 5748 5750 5751 5753 5753 5756 5758 5760 5761 5762 5763 5764 5765 5766 5767
5715 5714 5713 5711 5709 5708 5706 5705 5704 5704 5703 5703 5706 5708 5711 5712 5716 5719 5722 5724 5725 5727 5729 5732 5735 5737 5740 5742 5744 5745 5746 5747 5750 5752 5753 5755 5757 5757 5757 5758 5758 5759 5758
5712 5712 5711 5711 5709 5707 5706 5705 5704 5703 5702 5702 5701 5703 5706 5710 5713 5714 5716 5717 5721 5723 5725 5727 5730 5731 5734 5737 5738 5741 5743 5745 5746 5747 5749 5749 5750 5749 5748 5749 5750 5750 5749
Wind_Speed
34 31 30 30 31 34 36 37 37 34 33 32 29 31 35 31 26 26 33 28 30 29 25 22 19 15 13 12 12 11 11 10 8 7 7 7 7 7 7 8 8 8 8
30 27 26 24 25 29 33 35 37 33 33 25 26 29 33 34 30 25 31 31 29 28 24 21 18 15 14 13 13 13 12 9 9 7 7 6 6 7 9 9 10 10 8
28 23 24 24 23 24 28 33 37 33 36 38 23 26 29 29 31 30 33 27 26 26 23 19 17 15 15 14 13 13 11 9 8 8 8 7 8 9 10 11 11 10 11
24 24 25 27 28 27 26 27 30 34 35 36 31 28 25 28 30 28 34 28 24 23 20 20 19 19 22 19 16 12 11 10 9 9 9 10 11 12 11 12 10 12 11
25 25 27 31 32 32 28 29 32 34 34 39 31 27 21 29 28 29 34 26 27 22 22 22 24 23 19 16 14 13 12 10 8 11 12 12 14 13 12 11 11 12 12
27 27 30 32 33 36 35 32 30 34 43 41 32 33 25 25 32 32 36 28 23 22 24 22 21 20 18 16 15 14 13 10 11 11 13 14 16 14 12 12 11 13 12
26 30 33 38 36 36 42 32 43 30 38 34 38 27 27 28 33 36 32 26 27 27 24 23 22 20 18 18 16 16 14 12 14 13 15 16 16 14 13 13 13 14 13
24 26 30 34 34 26 24 30 32 30 33 39 38 29 29 30 31 34 43 31 29 31 27 26 24 23 21 18 18 17 16 15 16 17 18 16 15 15 14 15 14 14 15
24 23 28 31 29 25 27 33 34 29 25 15 18 35 36 35 31 31 29 29 30 34 32 29 26 25 21 19 19 19 18 17 19 19 17 19 16 18 20 16 17 15 15
20 20 24 25 24 17 19 21 21 18 19 15 20 20 32 31 32 28 33 35 36 41 38 29 29 26 22 19 20 21 19 20 21 18 19 18 20 23 22 16 18 17 17
17 16 15 17 20 16 17 19 16 18 17 16 22 24 20 29 30 32 40 35 41 42 39 32 31 28 22 21 21 20 20 20 20 20 20 17 21 22 21 18 20 19 19
14 13 15 14 16 14 18 19 20 20 22 22 24 23 21 28 37 35 34 35 43 40 37 36 31 29 25 23 23 21 22 19 19 15 15 18 18 22 26 21 21 21 21
16 16 17 18 16 15 13 17 23 24 25 25 26 24 23 21 39 39 36 34 32 39 37 37 32 31 29 25 24 24 22 18 20 21 21 19 19 23 25 23 22 23 21
18 18 18 19 20 17 16 14 20 25 26 25 26 26 29 32 41 38 40 38 32 40 41 40 35 35 33 28 28 24 24 23 24 24 27 26 23 23 24 23 23 22 21
20 22 21 19 19 21 18 17 19 22 24 25 29 30 28 26 33 30 40 37 37 40 47 42 39 37 35 31 28 26 24 25 27 27 25 23 23 24 24 23 22 23 19
18 20 20 18 19 19 22 20 23 25 25 27 25 26 37 42 51 42 49 48 41 34 46 46 41 37 35 32 33 29 27 27 28 27 26 26 25 26 25 25 23 24 21
16 17 18 18 18 17 19 22 23 24 28 29 26 23 32 35 40 48 49 43 36 35 35 48 44 38 37 32 31 31 32 31 29 28 28 27 26 26 25 24 22 23 20
16 16 18 21 21 21 22 24 22 24 26 28 29 20 22 33 45 51 40 41 43 40 40 48 50 46 43 36 35 34 33 32 32 31 31 29 29 27 25 23 23 18 21
17 15 15 18 23 25 25 25 24 25 25 25 29 21 18 24 39 41 31 36 44 36 42 38 48 51 47 38 38 37 35 35 32 33 30 30 28 25 23 21 19 24 20
16 13 14 16 21 24 23 21 22 18 20 17 23 12 22 38 39 38 42 34 33 37 38 33 35 43 39 42 38 33 33 30 29 29 28 27 26 24 22 23 24 24 20
12 13 13 16 20 19 14 16 18 13 16 14 21 15 11 24 27 26 24 24 23 24 26 28 33 33 34 31 26 25 25 26 28 27 26 27 27 27 29 26 26 22 28
10 8 10 11 11 8 8 11 13 12 14 15 17 13 15 10 14 19 17 15 17 15 16 22 20 24 27 26 25 26 23 25 24 25 26 26 25 26 25 23 24 26 30
10 7 8 9 8 8 10 11 9 11 8 11 14 16 19 15 14 12 15 11 10 14 18 19 21 22 22 25 26 24 22 20 20 20 23 25 24 24 25 25 27 31 34
11 8 7 7 7 7 8 8 11 12 15 17 17 16 15 12 10 11 13 13 14 16 15 17 18 23 23 24 26 24 23 21 19 18 17 18 24 26 29 29 30 33 36
12 10 9 8 6 7 8 9 8 7 2 6 15 20 19 16 15 17 16 17 18 21 22 21 20 20 23 26 24 22 23 24 22 22 22 22 24 27 30 32 33 33 37
8 10 10 12 10 6 6 7 9 8 7 3 7 17 21 20 18 20 20 19 20 19 23 23 21 21 22 18 19 18 20 24 25 26 26 28 26 31 34 33 35 36 36
Wind_Direction
273 271 269 268 268 268 265 262 257 251 246 254 248 242 236 234 238 239 234 229 234 231 222 215 210 200 202 201 199 215 222 228 230 241 251 271 288 301 307 303 290 291 288
277 277 275 274 268 267 264 261 260 251 245 239 239 241 239 233 242 237 218 214 219 222 216 210 207 200 204 206 209 215 222 228 236 241 258 276 291 307 297 285 273 269 272
281 278 279 280 275 269 267 267 264 255 251 245 243 237 239 230 234 230 215 204 212 215 211 206 204 206 209 217 221 222 221 228 242 256 268 284 285 285 276 272 263 267 269
288 285 285 288 282 275 268 266 262 260 243 243 238 224 226 222 225 222 201 195 201 209 211 207 229 238 235 227 226 228 233 232 250 269 268 273 278 270 272 265 271 269 270
287 287 291 290 284 279 260 253 248 246 240 239 235 216 219 207 221 221 210 214 204 213 212 219 221 218 212 215 226 232 237 243 253 269 279 277 271 268 265 265 273 273 272
290 290 283 286 280 278 256 241 243 243 228 226 228 231 221 215 214 210 220 212 209 212 218 221 210 212 213 218 224 233 236 249 262 269 273 271 268 266 270 274 273 271 269
294 289 286 279 282 268 256 235 243 247 240 213 219 228 235 230 219 213 225 205 212 213 212 210 213 214 217 223 230 235 242 248 256 262 263 264 265 265 270 273 275 270 263
289 282 287 284 291 279 236 235 233 247 227 206 209 213 227 222 227 224 222 215 219 216 203 209 221 225 223 228 240 244 244 246 252 255 256 257 263 267 265 270 268 262 256
276 275 286 286 290 278 255 234 222 242 207 211 204 217 227 220 218 219 220 228 237 212 202 215 227 224 229 237 246 243 242 249 256 259 271 254 252 254 266 256 259 257 258
297 289 287 297 302 267 242 218 219 222 211 225 205 233 228 217 221 218 222 232 230 211 213 216 223 227 236 246 244 239 244 251 258 271 278 266 246 253 270 247 257 258 256
301 291 286 298 300 274 239 237 222 225 214 211 226 229 235 204 219 220 216 225 222 219 218 207 218 228 236 245 240 240 246 253 258 264 269 275 261 257 267 246 251 252 254
302 285 302 298 296 292 251 230 231 226 229 235 237 231 218 211 214 218 216 223 218 210 215 210 214 230 235 241 238 242 250 255 253 262 276 270 268 264 259 242 249 252 253
299 278 283 293 287 286 255 237 230 232 236 237 239 233 225 228 215 211 217 211 220 221 220 216 216 229 236 243 238 246 249 255 250 261 272 277 272 264 260 243 247 249 250
292 291 287 281 284 278 268 255 223 224 232 236 230 235 246 239 219 208 216 223 221 216 218 220 217 227 238 242 241 246 251 253 255 269 269 274 269 267 248 241 242 249 252
284 292 289 281 276 275 273 270 261 241 236 239 234 237 227 234 207 218 222 226 222 220 218 221 222 227 237 243 247 246 257 259 260 272 272 275 271 264 243 240 243 250 254
286 291 283 277 278 265 257 261 261 262 259 255 246 242 241 222 231 230 223 220 229 227 221 219 228 228 236 243 252 248 256 265 264 271 270 268 261 254 243 240 241 247 254
300 299 286 276 278 273 261 257 256 260 260 259 245 224 232 222 210 203 213 228 220 231 237 227 229 236 233 241 252 251 256 261 267 268 268 268 257 254 245 239 240 252 255
306 289 281 277 275 268 268 266 258 258 258 256 263 243 227 222 203 207 228 233 242 234 239 238 237 234 235 239 248 255 259 263 267 267 270 267 261 251 240 243 252 249 245
307 290 280 275 273 270 267 275 268 257 247 243 245 236 239 227 225 233 233 239 232 242 240 241 238 241 233 237 248 253 262 263 259 265 263 257 251 244 242 241 241 252 250
304 290 278 280 277 277 277 273 266 258 249 248 260 255 238 228 231 241 241 243 246 252 251 244 251 242 241 244 245 255 260 260 263 263 260 250 244 241 235 237 241 251 243
299 290 283 282 283 282 280 273 250 246 239 241 284 229 242 226 239 229 229 234 234 238 231 230 243 243 241 240 244 247 252 261 267 266 259 248 240 243 243 234 247 251 263
303 284 279 292 299 297 274 240 237 237 226 228 272 226 185 184 202 209 194 200 202 199 217 226 222 231 237 232 237 244 258 264 265 266 258 256 248 248 251 252 253 262 267
292 295 286 302 327 330 267 249 244 252 241 223 250 232 207 204 177 184 190 202 209 221 231 233 230 227 227 237 243 250 254 257 260 266 260 253 248 249 252 253 260 265 269
287 282 283 301 322 338 327 290 270 263 257 240 231 231 217 216 215 216 228 230 246 249 253 250 246 236 240 244 250 253 254 239 253 252 264 265 258 256 261 268 268 271 277
288 285 284 286 293 311 329 318 306 298 321 258 238 225 222 235 232 236 248 247 249 250 257 252 257 259 256 259 254 262 256 245 243 246 244 254 264 268 271 271 273 275 278
304 283 282 290 291 287 303 309 303 308 315 330 230 222 230 248 253 261 258 264 262 261 255 260 261 265 262 257 242 244 244 244 249 254 251 263 271 269 269 275 278 279 285